Flag for Germany Weather past 2 weeks in Landshut, Bavaria, Germany

Now
63 °F

Rain. Low clouds.


Feels Like: 63 °F
Forecast: 51 / 64 °F
Wind: 5 mph from West

Location: Muenchen Flughafen

Current Time: Sep 1, 2015 at 11:04:50 PM

Latest Report: Sep 1, 2015 at 10:00 PM


Visibility: 6 mi

Pressure: 29.96 "Hg

Humidity: 94%

Dew point: 61 °F

Location of LandshutLocation

Historic Weather in Landshut — Graph

°F

Landshut temperature yesterday

Maximum temperature yesterday: 89 °F (at 5:00 PM)
Minimum temperature yesterday: 60 °F (at 5:00 AM)
Average temperature yesterday: 76 °F

Past Weeks' High & Low Weather Summary

 TemperatureHumidityPressure
High91 °F (Aug 30, 4:00 PM)100% (Aug 18, 3:00 AM)30.28 "Hg (Aug 18, 3:00 AM)
Low45 °F (Aug 26, 7:00 AM)27% (Aug 26, 5:00 PM)29.63 "Hg (Aug 24, 7:00 PM)
Average67 °F70%30.01 "Hg
* Reported Aug 17 10:00 PM — Sep 1 10:00 PM, Landshut, Weather by CustomWeather, © 2015

Note: Actual official high and low records may vary slightly from our data, if they occured in-between our weather recording intervals... More about our weather records

Advertising

Landshut weather history for previous 24 hours

 ConditionsComfort  
Time TempWeatherWind HumidityBarometerVisibility
10:00 PM
Tue, Sep 1
63 °FRain. Low clouds.5 mph94%29.96 "Hg6 mi
9:00 PM63 °FSprinkles. Low clouds.6 mph94%29.93 "Hg9 mi
8:00 PM64 °FThundershowers. Overcast.8 mph90%29.91 "Hg7 mi
7:00 PM66 °FSprinkles. Overcast.14 mph80%29.88 "Hg7 mi
6:00 PM77 °FOvercast.5 mph50%29.79 "Hg22 mi
5:00 PM78 °FPartly sunny.8 mph48%29.78 "Hg19 mi
4:00 PM86 °FScattered clouds.7 mph33%29.71 "Hg22 mi
3:00 PM88 °FPassing clouds.3 mph34%29.71 "Hg25 mi
2:00 PM87 °FPassing clouds.2 mph35%29.72 "Hg25 mi
1:00 PM84 °FPassing clouds.2 mph38%29.74 "Hg25 mi
12:00 PM82 °FPassing clouds.1 mph39%29.76 "Hg25 mi
11:00 AM80 °FPassing clouds.1 mph48%29.78 "Hg25 mi
10:00 AM76 °FPassing clouds.1 mph55%29.81 "Hg25 mi
9:00 AM71 °FPassing clouds.1 mph65%29.83 "Hg22 mi
8:00 AM66 °FPassing clouds.1 mph71%29.84 "Hg25 mi
7:00 AM62 °FCool.1 mph79%29.86 "Hg19 mi
6:00 AM59 °FPassing clouds.3 mph85%29.88 "Hg31 mi
5:00 AM58 °FClear.1 mph87%29.90 "Hg31 mi
4:00 AM59 °FClear.1 mph86%29.90 "Hg31 mi
3:00 AM60 °FClear.2 mph79%29.89 "Hg31 mi
2:00 AM61 °FClear.1 mph77%29.89 "Hg31 mi
1:00 AM60 °FClear.2 mph84%29.90 "Hg31 mi
11:00 PM
Mon, Aug 31
70 °FPassing clouds.3 mph53%29.88 "Hg31 mi
Weather by CustomWeather, © 2015

See weather overviewHow to use our weather pages